Location: Naloco
(16.5478°S, 37.1017°E)
Time: 02:53:36
(UTC+00:00)

ATLAS 3B R/B - Pass Details

Date: 13 August 2020
Orbit: 1016 x 1179 km, 63.8° (Epoch: 22 September)

Event Time Altitude Azimuth Distance (km) Brightness Sun altitude
Rises 16:12:03 0° 188° (S) 3,939 5.6 -12.4°
Reaches altitude 10° 16:15:16 10° 176° (S) 2,948 4.9 -13.2°
Maximum altitude 16:21:01 27° 120° (ESE) 1,913 3.5 -14.5°
Enters shadow 16:24:20 19° 79° (E) 2,281 3.9 -15.3°
